timestamp,surface_pressure_avg,surface_temp_avg,battery_voltage,lat,long
2020-06-15 00:09:01+00:00,204.3265,10.06,12.73,47.84626,-54.09684
2020-06-15 00:19:01+00:00,204.9466,10.1,12.73,47.84626,-54.09684
2020-06-15 00:29:01+00:00,204.4248,9.9,12.73,47.84626,-54.09684
2020-06-15 00:39:01+00:00,205.3848,9.8,12.73,47.84626,-54.09684
2020-06-15 00:49:01+00:00,206.0448,9.8,12.73,47.84626,-54.09684
2020-06-15 00:59:01+00:00,205.5798,9.79,12.73,47.84626,-54.09684
2020-06-15 01:09:01+00:00,202.9565,9.74,12.73,47.84626,-54.09684
2020-06-15 01:19:01+00:00,203.0264,9.7,12.65,47.84626,-54.09684
2020-06-15 01:29:01+00:00,205.3782,9.7,12.65,47.84626,-54.09684
2020-06-15 01:39:01+00:00,208.1381,9.6,12.65,47.84626,-54.09684
2020-06-15 01:49:01+00:00,209.5514,9.5,12.65,47.84626,-54.09684
2020-06-15 01:59:01+00:00,210.3964,9.4,12.65,47.84626,-54.09684
2020-06-15 02:09:01+00:00,213.0547,9.34,12.65,47.84626,-54.09684
2020-06-15 02:19:01+00:00,214.2931,9.3,12.65,47.84626,-54.09684
2020-06-15 02:29:01+00:00,214.583,9.3,12.65,47.84626,-54.09684
2020-06-15 02:39:01+00:00,216.4781,9.29,12.65,47.84626,-54.09684
2020-06-15 02:49:01+00:00,220.4148,9.25,12.65,47.84626,-54.09684
2020-06-15 02:59:01+00:00,220.8398,9.26,12.65,47.84626,-54.09684
2020-06-15 03:09:01+00:00,219.9031,9.21,12.65,47.84626,-54.09684
2020-06-15 03:19:01+00:00,221.0847,9.2,12.65,47.84626,-54.09684
2020-06-15 03:29:01+00:00,224.1498,9.2,12.65,47.84626,-54.09684
2020-06-15 03:39:01+00:00,227.1348,9.2,12.65,47.84626,-54.09684
2020-06-15 03:49:01+00:00,230.4648,9.2,12.65,47.84626,-54.09684
2020-06-15 03:59:01+00:00,232.6997,9.2,12.65,47.84626,-54.09684
2020-06-15 04:09:01+00:00,236.9281,9.2,12.65,47.84626,-54.09684
2020-06-15 04:19:01+00:00,241.6514,9.2,12.65,47.84626,-54.09684
2020-06-15 04:29:01+00:00,245.4315,9.2,12.65,47.84626,-54.09684
2020-06-15 04:39:01+00:00,250.4631,9.0,12.65,47.84626,-54.09684
2020-06-15 04:49:01+00:00,256.8764,8.89,12.65,47.84626,-54.09684
2020-06-15 04:59:01+00:00,258.8698,8.9,12.65,47.84626,-54.09684
2020-06-15 05:09:01+00:00,259.238,8.9,12.65,47.84626,-54.09684
2020-06-15 05:19:01+00:00,265.6798,8.97,12.65,47.84626,-54.09684
2020-06-15 05:29:01+00:00,271.9181,9.08,12.65,47.84626,-54.09684
2020-06-15 05:39:01+00:00,272.6464,9.2,12.65,47.84626,-54.09684
2020-06-15 05:49:01+00:00,274.118,9.0,12.65,47.84626,-54.09684
2020-06-15 05:59:01+00:00,281.8297,8.8,12.65,47.84626,-54.09684
2020-06-15 06:09:01+00:00,287.1231,8.86,12.65,47.84626,-54.09684
2020-06-15 06:19:01+00:00,286.598,8.88,12.57,47.84626,-54.09684
2020-06-15 06:29:01+00:00,289.3447,8.89,12.57,47.84626,-54.09684
2020-06-15 06:39:01+00:00,293.3113,8.9,12.57,47.84626,-54.09684
2020-06-15 06:49:01+00:00,293.3631,8.9,12.57,47.84626,-54.09684
2020-06-15 06:59:01+00:00,291.1163,8.9,12.57,47.84626,-54.09684
2020-06-15 07:09:01+00:00,293.318,8.91,12.57,47.84626,-54.09684
2020-06-15 07:19:01+00:00,296.1913,8.9,12.57,47.84626,-54.09684
2020-06-15 07:29:01+00:00,294.7079,8.9,12.57,47.84626,-54.09684
2020-06-15 07:39:01+00:00,294.0064,8.89,12.57,47.84626,-54.09684
2020-06-15 07:49:01+00:00,297.413,8.89,12.57,47.84626,-54.09684
2020-06-15 07:59:01+00:00,300.2563,8.89,12.57,47.84626,-54.09684
2020-06-15 08:09:01+00:00,298.368,8.89,12.57,47.84626,-54.09684
2020-06-15 08:19:01+00:00,297.3447,8.89,12.57,47.84626,-54.09684
2020-06-15 08:29:01+00:00,295.2531,8.89,12.57,47.84626,-54.09684
2020-06-15 08:39:01+00:00,290.7764,8.88,12.57,47.84626,-54.09684
2020-06-15 08:49:01+00:00,286.148,8.82,12.57,47.84626,-54.09684
2020-06-15 08:59:01+00:00,283.1447,8.8,12.57,47.84626,-54.09684
2020-06-15 09:09:01+00:00,279.7064,8.8,12.57,47.84626,-54.09684
2020-06-15 09:19:01+00:00,273.2181,8.88,12.57,47.84626,-54.09684
2020-06-15 09:29:01+00:00,268.1964,8.9,12.57,47.84626,-54.09684
2020-06-15 09:39:01+00:00,264.4697,8.9,12.57,47.84626,-54.09684
2020-06-15 09:49:01+00:00,261.0581,9.0,12.57,47.84626,-54.09684
2020-06-15 09:59:01+00:00,254.8564,9.0,12.57,47.84626,-54.09684
2020-06-15 10:09:01+00:00,249.1731,9.0,12.57,47.84626,-54.09684
2020-06-15 10:19:01+00:00,242.7715,9.16,12.65,47.84626,-54.09684
2020-06-15 10:29:01+00:00,235.8731,9.2,12.65,47.84626,-54.09684
2020-06-15 10:39:01+00:00,228.6597,9.09,12.65,47.84626,-54.09684
2020-06-15 10:49:01+00:00,223.7115,9.09,12.65,47.84626,-54.09684
2020-06-15 10:59:01+00:00,220.8298,9.1,12.65,47.84626,-54.09684
2020-06-15 11:09:01+00:00,216.3465,9.07,12.65,47.84626,-54.09684
2020-06-15 11:19:01+00:00,211.1831,9.0,12.73,47.84626,-54.09684
2020-06-15 11:29:01+00:00,212.4081,8.8,12.73,47.84626,-54.09684
2020-06-15 11:39:01+00:00,212.4598,8.8,12.73,47.84626,-54.09684
2020-06-15 11:49:01+00:00,208.9147,8.8,12.73,47.84626,-54.09684
2020-06-15 11:59:01+00:00,210.2265,8.8,12.73,47.84626,-54.09684
2020-06-15 12:09:01+00:00,211.5232,8.7,12.73,47.84626,-54.09684
2020-06-15 12:19:01+00:00,208.7081,8.7,13.05,47.84626,-54.09684
2020-06-15 12:29:01+00:00,206.2465,8.7,13.05,47.84626,-54.09684
2020-06-15 12:39:01+00:00,206.8882,8.7,13.05,47.84626,-54.09684
2020-06-15 12:49:01+00:00,206.6298,8.7,13.05,47.84626,-54.09684
2020-06-15 12:59:01+00:00,204.5682,8.7,13.05,47.84626,-54.09684
2020-06-15 13:09:01+00:00,204.4449,8.7,13.05,47.84626,-54.09684
2020-06-15 13:19:01+00:00,205.143,8.69,13.13,47.84626,-54.09684
2020-06-15 13:29:01+00:00,204.7397,8.67,13.13,47.84626,-54.09684
2020-06-15 13:39:01+00:00,205.4281,8.6,13.13,47.84626,-54.09684
2020-06-15 13:49:01+00:00,207.7398,8.6,13.13,47.84626,-54.09684
2020-06-15 13:59:01+00:00,209.6247,8.6,13.13,47.84626,-54.09684
2020-06-15 14:09:01+00:00,209.5665,8.6,13.13,47.84626,-54.09684
2020-06-15 14:19:01+00:00,210.5197,8.6,13.37,47.84626,-54.09684
2020-06-15 14:29:01+00:00,212.9798,8.6,13.37,47.84626,-54.09684
2020-06-15 14:39:01+00:00,213.5998,8.6,13.37,47.84626,-54.09684
2020-06-15 14:49:01+00:00,212.8899,8.6,13.37,47.84626,-54.09684
2020-06-15 14:59:01+00:00,214.4348,8.6,13.37,47.84626,-54.09684
2020-06-15 15:09:01+00:00,220.5881,8.6,13.37,47.84626,-54.09684
2020-06-15 15:19:01+00:00,223.1313,8.6,14.08,47.84626,-54.09684
2020-06-15 15:29:01+00:00,224.2198,8.6,14.08,47.84626,-54.09684
2020-06-15 15:39:01+00:00,228.5331,8.57,14.08,47.84626,-54.09684
2020-06-15 15:49:01+00:00,231.3082,8.54,14.08,47.84626,-54.09684
2020-06-15 15:59:01+00:00,233.5147,8.54,14.08,47.84626,-54.09684
2020-06-15 16:09:01+00:00,239.1731,8.5,14.08,47.84626,-54.09684
2020-06-15 16:19:01+00:00,244.6631,8.5,14.24,47.84626,-54.09684
2020-06-15 16:29:01+00:00,247.7397,8.5,14.24,47.84626,-54.09684
2020-06-15 16:39:01+00:00,251.5314,8.5,14.24,47.84626,-54.09684
2020-06-15 16:49:01+00:00,256.8364,8.5,14.24,47.84626,-54.09684
2020-06-15 16:59:01+00:00,262.5298,8.5,14.24,47.84626,-54.09684
2020-06-15 17:09:01+00:00,265.7014,8.5,14.24,47.84626,-54.09684
2020-06-15 17:19:01+00:00,269.58799999999997,8.5,14.16,47.84626,-54.09684
2020-06-15 17:29:01+00:00,272.7397,8.5,14.16,47.84626,-54.09684
2020-06-15 17:39:01+00:00,277.7747,8.51,14.16,47.84626,-54.09684
2020-06-15 17:49:01+00:00,280.053,8.55,14.16,47.84626,-54.09684
2020-06-15 17:59:01+00:00,284.1464,8.55,14.16,47.84626,-54.09684
2020-06-15 18:09:01+00:00,289.6613,8.55,14.16,47.84626,-54.09684
2020-06-15 18:19:01+00:00,293.1446,8.56,14.24,47.84626,-54.09684
2020-06-15 18:29:01+00:00,293.9097,8.59,14.24,47.84626,-54.09684
2020-06-15 18:39:01+00:00,295.7863,8.6,14.24,47.84626,-54.09684
2020-06-15 18:49:01+00:00,297.4465,8.6,14.24,47.84626,-54.09684
2020-06-15 18:59:01+00:00,298.4897,8.6,14.24,47.84626,-54.09684
2020-06-15 19:09:01+00:00,298.7097,8.6,14.24,47.84626,-54.09684
2020-06-15 19:19:01+00:00,302.5297,8.55,14.0,47.84626,-54.09684
2020-06-15 19:29:01+00:00,305.3996,8.5,14.0,47.84626,-54.09684
2020-06-15 19:39:01+00:00,304.553,8.5,14.0,47.84626,-54.09684
2020-06-15 19:49:01+00:00,302.2346,8.5,14.0,47.84626,-54.09684
2020-06-15 19:59:01+00:00,304.533,8.5,14.0,47.84626,-54.09684
2020-06-15 20:09:01+00:00,305.478,8.5,14.0,47.84626,-54.09684
2020-06-15 20:19:01+00:00,302.2546,8.5,13.84,47.84626,-54.09684
2020-06-15 20:29:01+00:00,300.358,8.5,13.84,47.84626,-54.09684
2020-06-15 20:39:01+00:00,303.4046,8.5,13.84,47.84626,-54.09684
2020-06-15 20:49:01+00:00,301.578,8.5,13.84,47.84626,-54.09684
2020-06-15 20:59:01+00:00,296.7363,8.5,13.84,47.84626,-54.09684
2020-06-15 21:09:01+00:00,293.8781,8.5,13.84,47.84626,-54.09684
2020-06-15 21:19:01+00:00,294.6931,8.5,13.6,47.84626,-54.09684
2020-06-15 21:29:01+00:00,292.7697,8.5,13.6,47.84626,-54.09684
2020-06-15 21:39:01+00:00,285.7531,8.5,13.6,47.84626,-54.09684
2020-06-15 21:49:01+00:00,279.7831,8.5,13.6,47.84626,-54.09684
2020-06-15 21:59:01+00:00,278.2664,8.5,13.6,47.84626,-54.09684
2020-06-15 22:09:01+00:00,276.5164,8.5,13.6,47.84626,-54.09684
2020-06-15 22:19:01+00:00,270.4464,8.5,13.37,47.84626,-54.09684
2020-06-15 22:29:01+00:00,264.7348,8.5,13.37,47.84626,-54.09684
2020-06-15 22:39:01+00:00,262.1864,8.5,13.37,47.84626,-54.09684
2020-06-15 22:49:01+00:00,258.3948,8.5,13.37,47.84626,-54.09684
2020-06-15 22:59:01+00:00,253.1514,8.5,13.37,47.84626,-54.09684
2020-06-15 23:09:01+00:00,246.9964,8.5,13.37,47.84626,-54.09684
2020-06-15 23:19:01+00:00,244.7964,8.5,13.05,47.84626,-54.09684
2020-06-15 23:29:01+00:00,243.4465,8.5,13.05,47.84626,-54.09684
2020-06-15 23:39:01+00:00,240.2515,8.54,13.05,47.84626,-54.09684
2020-06-15 23:49:01+00:00,234.0098,8.6,13.05,47.84626,-54.09684
2020-06-15 23:59:01+00:00,230.0431,8.6,13.05,47.84626,-54.09684
